weather.gov     
National Weather Service

Regional Weather Roundup
NWS Homepage
This page is being discontinued on March 12, 2014.
The same data is available at this site. Please update your bookmarks.
Thank you, and we apologize for the inconvenience.
Please send an email to SR-SRH.Webmaster@noaa.gov with any concerns.


Current Version
Previous Version:    01  02  03  04  05  06  07  08  09  10  11  12  13  14  15  16  17  18  19  20  21  22  23  24  25  26  27  
[Printable]
986
ASUS42 KTBW 210610
RWRFL
FLORIDA REGIONAL WEATHER ROUNDUP
NATIONAL WEATHER SERVICE TAMPA BAY RUSKIN FL
100 AM EST SUN DEC 21 2014

NOTE: "FAIR" INDICATES FEW OR NO CLOUDS BELOW 12,000 FEET WITH NO
SIGNIFICANT WEATHER AND/OR OBSTRUCTIONS TO VISIBILITY.


FLZ001>010-012>015-112-114-115-210700-
PANHANDLE FLORIDA

CITY           SKY/WX    TMP DP  RH WIND       PRES   REMARKS
PENSACOLA      CLOUDY    49  48  97 N7        30.12S
CRESTVIEW      CLOUDY    51  49  92 N5        30.14F
DUKE FIELD     MOCLDY    51  49  93 NE6       30.11F
VALPARAISO     CLOUDY    52  50  92 N7        30.11F
MARY ESTHER    CLOUDY    52  48  85 NE12      30.10F
PANAMA CITY    CLOUDY    55  52  89 N7        30.10F
APALACHICOLA   CLOUDY    57  53  86 NE13      30.07F

STATION/POSITION SKY/WX   TEMP    WIND        PRES    WAVE   SWELL
                          AIR SEA DIR/SP/G            HT/PER HT/PER
                          (F)     (DEG/KT/KT) (MB)    (FT/S) (FT/S)
30.1N   87.6W              56 69   40/ 16/ 17 1018.7F   3/ 6   2/ 8
29.2N   88.2W              64 74   40/ 16/ 19 1018.4R   6/ 6
28.7N   86.0W              69 75   60/ 16/ 17 1016.8R   5/ 6   2/ 8
PANAMA CITY BEAC           55 61   50/  8/ 13 1018.8F
CAPE SAN BLAS    NOT AVBL
TOWER C                    59      50/ 21/ 22 1017.7F
28.5N   84.5W              71 72  130/ 14/ 14 1017.1F   2/ 8   2/ 8

$$
FLZ011-016>038-118-127-128-134-139-239-210700-
NORTH FLORIDA

CITY           SKY/WX    TMP DP  RH WIND       PRES   REMARKS
MARIANNA       CLOUDY    54  54 100 NE8       30.13F
TALLAHASSEE    LGT RAIN  56  51  84 N7        30.12R
PERRY          CLOUDY    58  53  84 NE3       30.10F
CROSS CITY       N/A     58  54  86 E5        30.09F
LAKE CITY      CLOUDY    55  54  94 E6        30.12S
GAINESVILLE    CLOUDY    58  56  93 NE6       30.10F
MAYPORT NAS    CLOUDY    60  58  92 N14       30.13R
JACKSONVILLE   CLOUDY    57  57 100 NE10      30.13F
JAX NAS        LGT RAIN  62  57  83 N10       30.14S
JAX CRAIG      CLOUDY    60  57  89 NE9       30.13S
JAX CECIL      LGT RAIN  57  57 100 NE3       30.13F
FERNANDINA BEA CLOUDY    63  59  88 N9        30.13S
ST AUGUSTINE   CLOUDY    61  60  97 N10       30.12S

STATION/POSITION SKY/WX   TEMP    WIND        PRES    WAVE   SWELL
                          AIR SEA DIR/SP/G            HT/PER HT/PER
                          (F)     (DEG/KT/KT) (MB)    (FT/S) (FT/S)
SHELL POINT                56      60/  5/  8   N/A
KEATON BEACH               59      60/  9/ 13 1018.7S
CEDAR KEY                  62      60/  7/  7 1019.3F
FERNANDINA                 58 60   20/  9/ 16 1019.9S
30.7N   81.3W                 61                N/A     5/ 5
MAYPORT                    60 61   30/ 12/ 16   N/A
31.4N   80.9W              56 59   30/ 19/ 21 1020.5S   5/ 5   2/11
ST AUGUSTINE               61     350/ 15/ 18 1020.0F

$$
FLZ040-043>046-052-053-057-058-063-144-210700-
INTERIOR CENTRAL FLORIDA

CITY           SKY/WX    TMP DP  RH WIND       PRES   REMARKS
OCALA          CLOUDY    61  55  82 NE6       30.10S
THE VILLAGES     N/A     61  61 100 NE7       29.99F FOG
LEESBURG       CLOUDY    62  60  93 NE3       30.11S
SANFORD        CLOUDY    63  61  93 NE3       30.09S
ORLANDO EXEC   CLOUDY    65  62  90 CALM      30.09S
ORLANDO INTL   CLOUDY    64  62  93 N5        30.09S
WINTER HAVEN   MOCLDY    63  58  83 NE3       30.08F
LAKELAND       CLOUDY    57  54  88 CALM      30.08S
BARTOW         MOCLDY    57  55  94 CALM      30.08F
OKEECHOBEE     PTCLDY    59  59 100 SE3       30.08F

$$
FLZ041-047-054-059-064-141-147-210700-
EAST CENTRAL FLORIDA

CITY           SKY/WX    TMP DP  RH WIND       PRES   REMARKS
DAYTONA BEACH  CLOUDY    65  63  93 CALM      30.10F
DELAND         CLOUDY   N/A N/A N/A CALM      30.10S
PATRICK AFB    MOCLDY    66  62  86 S5        30.07F
MELBOURNE      MOCLDY    67  61  81 S6        30.07F
VERO BEACH     PTCLDY    59  58  96 CALM      30.08F
FT PIERCE      CLEAR     58  56  93 CALM      30.08F
STUART         PTCLDY    63  61  94 CALM      30.09F

STATION/POSITION SKY/WX   TEMP    WIND        PRES    WAVE   SWELL
                          AIR SEA DIR/SP/G            HT/PER HT/PER
                          (F)     (DEG/KT/KT) (MB)    (FT/S) (FT/S)
28.5N   80.2W              74 76  160/  8/ 10 1019.3F
28.9N   78.5W              74 76  150/  6/  8 1019.3F   2/11   2/11
TRIDENT PIER               66 66   CALM  /  3 1018.1F
28.4N   80.5W                 67                N/A     1/11
27.6N   80.2W                 76                N/A     2/11

$$
FLZ050-056-061-142-242-148-248-149-249-151-251-155-255-
160-260-210700-
WEST CENTRAL FLORIDA

CITY           SKY/WX    TMP DP  RH WIND       PRES   REMARKS
CRYSTAL RIVER  MOCLDY    61  59  94 E6        30.08F
INVERNESS      MOCLDY    61  59  94 CALM      30.09S
BROOKSVILLE    MOCLDY    62  59  90 NE6       30.08F
ZEPHYRHILLS    FAIR      55  55 100 CALM      30.09S
CLEARWATER     CLOUDY    64  61  90 CALM      30.07S
TAMPA INTL     MOCLDY    67  57  70 CALM      30.08S
TAMPA EXEC     MOCLDY    61  57  88 CALM      30.08F
PLANT CITY     CLOUDY    63 N/A N/A CALM      30.09S
MACDILL AFB    MOCLDY    60  59  96 CALM      30.07F
PETER O KNIGHT CLOUDY    64  59  82 CALM      30.07F
ST PETERSBURG  MOCLDY    65  61  87 CALM      30.05F
SARASOTA       CLEAR     64  61  90 E3        30.05F
VENICE         FAIR      64  63  94 E3        30.07S

STATION/POSITION SKY/WX   TEMP    WIND        PRES    WAVE   SWELL
                          AIR SEA DIR/SP/G            HT/PER HT/PER
                          (F)     (DEG/KT/KT) (MB)    (FT/S) (FT/S)
CEDAR KEY                  62      60/  7/  7 1019.3F
28.5N   84.5W              71 72  130/ 14/ 14 1017.1F   2/ 8   2/ 8
27.3N   84.3W                 75                N/A     3/ 4
CLEARWATER BEACH           67 64   70/  3/  5 1017.9S
MIDDLE TAMPA BAY           65      90/  5/  5 1018.4
VENICE                     65 66   90/  5/  6 1017.7S

$$
FLZ066-069-070-075>078-162-262-165-265-210700-
SOUTHWEST FLORIDA AND KEYS

CITY           SKY/WX    TMP DP  RH WIND       PRES   REMARKS
PUNTA GORDA    PTCLDY    62  60  93 CALM      30.08F
FT MYERS       MOCLDY    65  62  90 CALM      30.06S
SOUTHWEST INTL CLOUDY    65  61  87 CALM      30.07F
NAPLES         CLOUDY    66  63  90 SE7       30.07S
MARCO ISLAND   CLOUDY    64  61  88 E6        30.07F
MARATHON       CLEAR     69  69 100 CALM      30.07F
KEY WEST NAS   CLEAR     71  68  90 E7        30.06F
KEY WEST INTL  CLEAR     73  68  84 E8        30.06F

STATION/POSITION SKY/WX   TEMP    WIND        PRES    WAVE   SWELL
                          AIR SEA DIR/SP/G            HT/PER HT/PER
                          (F)     (DEG/KT/KT) (MB)    (FT/S) (FT/S)
VENICE                     65 66   90/  5/  6 1017.7S
NAPLES                     67 73  130/  5/  8 1018.7S
26.0N   85.6W              76 76  170/  6/  6 1016.8F   2/ 7   2/ 7
DRY TORTUGAS               73     110/ 11/ 12 1017.5F
NW FL BAY                  70      80/  4/  5 1018.9F
SAND KEY                   75     110/ 15/ 16 1017.6F
SOMBRERO KEY               75     100/ 11/ 12 1018.7F
LONG KEY                   71 71   50/  5/  5 1019.4S
MOLASSES REEF              75 76  130/  9/ 10 1018.6S

$$
FLZ067-068-071>074-168-172>174-210700-
SOUTHEAST FLORIDA

CITY           SKY/WX    TMP DP  RH WIND       PRES   REMARKS
W PALM BEACH   PTCLDY    65  62  90 CALM      30.06F
FT LAUDER-EXEC PTCLDY    64  61  90 CALM      30.08F
FT LAUDERDALE  MOCLDY    68  65  90 CALM      30.07F
POMPANO BEACH  PTCLDY    67  62  84 CALM      30.08F
PEMBROKE PINES PTCLDY    65  61  87 CALM      30.09F
OPA LOCKA      MOCLDY    62  61  96 CALM      30.09S FOG
MIAMI          MOCLDY    67  63  87 CALM      30.08F
WEST KENDALL   PTCLDY   N/A N/A N/A CALM      30.09S
HOMESTEAD      CLEAR     63  61  93 NW2       30.08S

STATION/POSITION SKY/WX   TEMP    WIND        PRES    WAVE   SWELL
                          AIR SEA DIR/SP/G            HT/PER HT/PER
                          (F)     (DEG/KT/KT) (MB)    (FT/S) (FT/S)
PORT EVERGLADES            75     130/  6/  8 1018.3
VIRGINIA KEY               72 72   CALM  /  1 1019.1S
LAKE WORTH                 75 76  150/  9/ 10 1018.1F
SETTLEMENT POINT           71     110/  9/ 10 1019.7F

$$





U.S. Dept. of Commerce
NOAA National Weather Service
1325 East West Highway
Silver Spring, MD 20910
E-mail: w-nws.webmaster@noaa.gov
Page last modified: May 16, 2007
NATIONAL WEATHER SERVICE: for Safety, for Work, for Fun - FOR LIFE